Showing default

SHIYAN 24C 01, 58650

Orbit data source: Space-Track

SHIYAN 24C 01, 58650 is a payload satellite owned by CASC (CN) in SSO that was launched on Mon, 25 Dec 2023 UTC via a CHANG ZHENG 11 launch vehicle from the South China Sea Launch Area (SCSLA). Payload-class satellites include a variety of spacecraft equipped with specific instruments for various scientific and technological missions. These include communications satellites like Starlink; space stations such as the ISS; scientific satellites like the Hubble; Earth observation satellites from companies like Planet Labs, Umbra, and HawkEye 360; GPS; miniature CubeSats for education and research; and military/defense satellites.

Loading next visibility...
Identifier
58650, 2023-206A
Orbit
SSO
Last TLE update
1 day ago
Origin
Manufacturer
SECM?
Mission
Operational Defense Technology
Bus & Motor
Unknown
Mass
~80 kg wet, ~80 kg dry
Launch date (UTC)
2023-12-25 (1 year ago)
Launch vehicle
CHANG ZHENG 11
Launch site
South China Sea Launch Area (SCSLA)
Object type
Payload
Rocket body
Debris
Shape & HBR
Box + 2 Pan, 8 m
Radar Cross Section
6.005 m², Medium (>0.1 m² and < 1m²)

Expand to show TLE details & history

TLE from 1 day ago
0 SHIYAN 24C 01
1 58650U 23206A   25118.91983577  .00003793  00000-0  33618-3 0  9999
2 58650  97.3611 104.4710 0003576 129.2280 230.9260 14.96769922 73316
Epoch: 2025-04-28T22:04Z
Definitive object data (Epoch: 2025-04-28T22:04:33.81Z)
Latitude
-0.00008°
Longitude
-83.79681°
Altitude
581.513 km
Speed
7.569 km/s
True Right ascension
06h 57m 53s
True Declination
0° 00' 00"
Sunlit
Object was in daylight at TLE epoch
Visualization TLE readout
Latitude
43.71019°
Longitude
104.66642°
Altitude
580.989 km
Speed
7.576 km/s
Apparent Right ascension
00h 20m 08s
Apparent Declination
15° 38' 28"
Sunlit
Object is in daylight
Visualization observer readout
Local Sidereal Time
17:32:40
Azimuth
70.492° E
Elevation
1.209°
Doppler factor
1
Orbital elements
Apogee altitude
576.366 km
Perigee altitude
571.393 km
Semi-major axis
6,952.016 km
Eccentricity
0.0003576
Inclination
97.3611°
RAAN
104.471°
Arg. of periapsis
129.228°
True anomaly
230.8942°
Mean anomaly
230.926°
Eccentric anomaly
230.9101°
Mean motion
3.74435 °/min
BSTAR
0.00033618
Orbital period
96.14 mins
Loading maneuver chart data...
Loading SW <> Apogee altitude chart data...
Loading historical data...
Loading historical data...
Loading historical data...
Loading historical data...
Loading historical data...
Loading historical data...
Loading historical data...
Other satellites on launch #206 in the year 2023 (2023-12-25 UTC)

SHIYAN 24C 01 Visibility forecast

Observer location: undefined°, undefined°

Span
Click to sort rows by Start time (UTC) header in descending order
Start Az.
Max El. time (UTC)
Max El. Az.
Max El.
End time (UTC)
End Az.
7 mins2025-04-30 11:32:44.735Z23.62° NE2025-04-30 11:35:44.735Z73.381° E37.557°2025-04-30 11:39:44.735Z175.959° S
5 mins2025-04-30 22:21:44.735Z117.728° SE2025-04-30 22:23:44.735Z75.083° E25.92°2025-04-30 22:26:44.735Z16.18° NNE
4 mins2025-04-30 23:57:44.735Z238.172° WSW2025-04-30 23:58:44.735Z256.879° W18.795°2025-05-01 00:01:44.735Z309.572° NW
|